Simultaneous Nadir Overpasses (SNOs) Predictions

Prediction of SNOs between GOES-16 and NPP Satellite Orbit:

Table of predicted SNOs for the next 14.0 days since TLE Epoch: 9/7/2024
Index Date Time (GOES-16) GOES-16 Lat,Lon NPP Lat,Lon Distance(km) Time Diff (sec)
1 09/07/2024 06:20:10 0.06, -75.20 -0.29, -73.56 186.47 80
2 09/08/2024 18:39:25 -0.05, -75.20 -0.87, -78.87 417.04 80
3 09/09/2024 18:23:19 -0.05, -75.21 0.12, -74.32 100.18 80
4 09/11/2024 06:42:25 0.05, -75.21 1.01, -79.59 499.34 80
5 09/12/2024 06:23:39 0.04, -75.21 0.02, -75.05 17.97 80
6 09/14/2024 18:26:47 -0.03, -75.22 -0.14, -75.82 67.72 80
7 09/15/2024 18:10:41 -0.02, -75.23 0.87, -71.28 450.13 80
8 09/17/2024 06:29:46 0.02, -75.24 0.29, -76.54 148.00 80
9 09/18/2024 06:13:40 0.02, -75.25 -0.72, -72.01 370.42 80
10 09/19/2024 18:32:53 -0.02, -75.27 -0.46, -77.30 230.69 80
11 09/20/2024 18:16:47 -0.02, -75.29 0.56, -72.76 288.15 80
